Wetterdaten: aktuell Dienstag, 01.09.2026 08:02
Datum Zeit Temp. A. Feuchte A. Luftdruck Regen Wind Richtung Richtung Sonnenschein Regendauer Taupunkt Windchill
01.09.2026 08:02 15,8 °C 85 % 1019,7 hPa 0,0 mm 1,3 km/h (1 Bft) O-SO 115 ° 6 min 0 min 13,3 °C 15,8 °C
01.09.2026 07:57 15,6 °C 86 % 1019,8 hPa 0,0 mm 1,3 km/h (1 Bft) O-NO 70 ° 2 min 0 min 13,3 °C 15,6 °C
01.09.2026 07:52 15,4 °C 86 % 1019,8 hPa 0,0 mm 0,5 km/h (0 Bft) O 80 ° 5 min 0 min 13,1 °C 15,4 °C
01.09.2026 07:47 15,1 °C 87 % 1019,9 hPa 0,0 mm 0,7 km/h (0 Bft) O 95 ° 5 min 0 min 13,0 °C 15,1 °C
01.09.2026 07:42 15,1 °C 87 % 1019,9 hPa 0,0 mm 0,0 km/h (0 Bft) O 90 ° 5 min 0 min 13,0 °C 15,1 °C
01.09.2026 07:37 15,0 °C 88 % 1019,9 hPa 0,0 mm 0,0 km/h (0 Bft) O 90 ° 6 min 0 min 13,0 °C 15,0 °C
01.09.2026 07:32 14,4 °C 89 % 1020,0 hPa 0,0 mm 0,0 km/h (0 Bft) N-NO 15 ° 5 min 0 min 12,6 °C 14,4 °C
01.09.2026 07:27 14,2 °C 90 % 1020,0 hPa 0,0 mm 0,0 km/h (0 Bft) O-SO 110 ° 5 min 0 min 12,6 °C 14,2 °C
01.09.2026 07:22 14,0 °C 91 % 1020,1 hPa 0,0 mm 0,0 km/h (0 Bft) N-NO 30 ° 5 min 0 min 12,6 °C 14,0 °C
01.09.2026 07:17 13,7 °C 91 % 1020,1 hPa 0,0 mm 2,7 km/h (1 Bft) O-SO 110 ° 5 min 0 min 12,3 °C 13,7 °C
01.09.2026 07:12 13,5 °C 92 % 1020,2 hPa 0,0 mm 0,0 km/h (0 Bft) O-SO 120 ° 4 min 0 min 12,2 °C 13,5 °C
01.09.2026 07:07 13,2 °C 94 % 1020,2 hPa 0,0 mm 0,0 km/h (0 Bft) O-SO 120 ° 6 min 0 min 12,3 °C 13,2 °C
01.09.2026 07:02 12,8 °C 95 % 1020,3 hPa 0,0 mm 0,0 km/h (0 Bft) O 80 ° 5 min 0 min 12,0 °C 12,8 °C
01.09.2026 06:57 12,2 °C 95 % 1020,4 hPa 0,0 mm 0,0 km/h (0 Bft) W-NW 290 ° 2 min 0 min 11,4 °C 12,2 °C
01.09.2026 06:52 12,1 °C 95 % 1020,4 hPa 0,0 mm 0,0 km/h (0 Bft) W-NW 285 ° 0 min 0 min 11,3 °C 12,1 °C
01.09.2026 06:47 12,1 °C 95 % 1020,4 hPa 0,0 mm 0,0 km/h (0 Bft) W 270 ° 0 min 0 min 11,3 °C 12,1 °C
01.09.2026 06:42 12,1 °C 95 % 1020,4 hPa 0,0 mm 0,0 km/h (0 Bft) N 355 ° 0 min 0 min 11,3 °C 12,1 °C
01.09.2026 06:37 12,1 °C 95 % 1020,4 hPa 0,0 mm 2,3 km/h (1 Bft) NW 325 ° 0 min 0 min 11,3 °C 12,1 °C
01.09.2026 06:32 12,1 °C 95 % 1020,4 hPa 0,0 mm 0,0 km/h (0 Bft) N-NW 340 ° 0 min 0 min 11,3 °C 12,1 °C
01.09.2026 06:27 12,2 °C 94 % 1020,4 hPa 0,0 mm 0,0 km/h (0 Bft) NW 310 ° 0 min 0 min 11,3 °C 12,2 °C
01.09.2026 06:22 12,3 °C 94 % 1020,4 hPa 0,0 mm 0,2 km/h (0 Bft) NO 50 ° 0 min 0 min 11,4 °C 12,3 °C
01.09.2026 06:17 12,4 °C 94 % 1020,4 hPa 0,0 mm 0,0 km/h (0 Bft) N-NO 25 ° 0 min 0 min 11,5 °C 12,4 °C
01.09.2026 06:12 12,5 °C 94 % 1020,4 hPa 0,0 mm 0,0 km/h (0 Bft) O-NO 65 ° 0 min 0 min 11,6 °C 12,5 °C
01.09.2026 06:07 12,7 °C 94 % 1020,3 hPa 0,0 mm 0,0 km/h (0 Bft) W-NW 290 ° 0 min 0 min 11,8 °C 12,7 °C
01.09.2026 06:02 12,7 °C 94 % 1020,3 hPa 0,0 mm 0,5 km/h (0 Bft) W-NW 285 ° 0 min 0 min 11,8 °C 12,7 °C
01.09.2026 05:57 12,7 °C 94 % 1020,3 hPa 0,0 mm 0,4 km/h (0 Bft) W-NW 285 ° 0 min 0 min 11,8 °C 12,7 °C
01.09.2026 05:52 12,5 °C 94 % 1020,4 hPa 0,0 mm 0,0 km/h (0 Bft) W-NW 295 ° 0 min 0 min 11,6 °C 12,5 °C
01.09.2026 05:47 12,6 °C 94 % 1020,3 hPa 0,0 mm 0,0 km/h (0 Bft) SO 145 ° 0 min 0 min 11,7 °C 12,6 °C
01.09.2026 05:42 12,6 °C 94 % 1020,3 hPa 0,0 mm 0,0 km/h (0 Bft) SO 130 ° 0 min 0 min 11,7 °C 12,6 °C
01.09.2026 05:37 12,6 °C 92 % 1020,3 hPa 0,0 mm 0,0 km/h (0 Bft) SO 130 ° 0 min 0 min 11,3 °C 12,6 °C
01.09.2026 05:32 12,7 °C 92 % 1020,3 hPa 0,0 mm 0,0 km/h (0 Bft) O 85 ° 0 min 0 min 11,4 °C 12,7 °C
01.09.2026 05:27 12,8 °C 92 % 1020,3 hPa 0,0 mm 0,0 km/h (0 Bft) O 90 ° 0 min 0 min 11,5 °C 12,8 °C
01.09.2026 05:22 13,0 °C 92 % 1020,3 hPa 0,0 mm 0,0 km/h (0 Bft) S 180 ° 0 min 0 min 11,7 °C 13,0 °C
01.09.2026 05:17 13,0 °C 92 % 1020,3 hPa 0,0 mm 0,0 km/h (0 Bft) N-NW 340 ° 0 min 0 min 11,7 °C 13,0 °C
01.09.2026 05:12 13,0 °C 92 % 1020,3 hPa 0,0 mm 0,0 km/h (0 Bft) N-NW 335 ° 0 min 0 min 11,7 °C 13,0 °C
01.09.2026 05:07 13,0 °C 92 % 1020,3 hPa 0,0 mm 0,0 km/h (0 Bft) N-NW 335 ° 0 min 0 min 11,7 °C 13,0 °C
01.09.2026 05:02 13,0 °C 92 % 1020,3 hPa 0,0 mm 0,0 km/h (0 Bft) W-SW 240 ° 0 min 0 min 11,7 °C 13,0 °C
01.09.2026 04:57 13,1 °C 92 % 1020,2 hPa 0,0 mm 0,0 km/h (0 Bft) W-SW 245 ° 0 min 0 min 11,8 °C 13,1 °C
01.09.2026 04:52 13,2 °C 92 % 1020,2 hPa 0,0 mm 0,0 km/h (0 Bft) W-SW 245 ° 0 min 0 min 11,9 °C 13,2 °C
01.09.2026 04:47 13,2 °C 92 % 1020,2 hPa 0,0 mm 1,4 km/h (1 Bft) W-SW 240 ° 0 min 0 min 11,9 °C 13,2 °C
01.09.2026 04:42 13,1 °C 92 % 1020,2 hPa 0,0 mm 0,0 km/h (0 Bft) W-SW 240 ° 0 min 0 min 11,8 °C 13,1 °C
01.09.2026 04:37 13,0 °C 92 % 1020,3 hPa 0,0 mm 0,0 km/h (0 Bft) W-NW 300 ° 0 min 0 min 11,7 °C 13,0 °C
01.09.2026 04:32 13,0 °C 92 % 1020,3 hPa 0,0 mm 0,0 km/h (0 Bft) W-NW 285 ° 0 min 0 min 11,7 °C 13,0 °C
01.09.2026 04:27 13,0 °C 92 % 1020,3 hPa 0,0 mm 0,0 km/h (0 Bft) W-SW 245 ° 0 min 0 min 11,7 °C 13,0 °C
01.09.2026 04:22 13,0 °C 92 % 1020,3 hPa 0,0 mm 0,0 km/h (0 Bft) NW 315 ° 0 min 0 min 11,7 °C 13,0 °C
01.09.2026 04:17 13,1 °C 92 % 1020,2 hPa 0,0 mm 0,0 km/h (0 Bft) NW 315 ° 0 min 0 min 11,8 °C 13,1 °C
01.09.2026 04:12 13,2 °C 92 % 1020,2 hPa 0,0 mm 0,0 km/h (0 Bft) NW 315 ° 0 min 0 min 11,9 °C 13,2 °C
01.09.2026 04:07 13,1 °C 92 % 1020,2 hPa 0,0 mm 0,0 km/h (0 Bft) W-NW 295 ° 0 min 0 min 11,8 °C 13,1 °C
01.09.2026 04:02 13,1 °C 92 % 1019,2 hPa 0,0 mm 0,0 km/h (0 Bft) W-SW 245 ° 0 min 0 min 11,8 °C 13,1 °C
_ Min-Zeit 06:32 17:17 15:52 - 19:22 - - - - 06:27 06:32
Minimum _ 12,1 °C 52 % 1012,6 hPa - 0,0 km/h (0 Bft) - - - - 11,3 °C 12,1 °C
_ Max-Zeit 15:47 06:32 06:32 09:02 14:17 - - 10:52 09:02 12:22 15:47
Maximum _ 25,8 °C 95 % 1020,4 hPa 0,0 mm 45,7 km/h
O-SO (6 Bft)
- - 7 min 0 min 18,1 °C 25,8 °C
Durchschnitt _ 18,5 °C 79 % 1016,2 hPa #0,0 mm 6,1 km/h (2 Bft) NW - #1:06 h #0 min. 14,5 °C 18,5 °C